"Pseudo-MPEC" for A10eQE0

Created 2019 Jul 16 12:07:03 UT using Find_Orb

Click here for an explanation of pseudo-MPECs

 
 Astrometry: 
     A10eQE0  C2019 07 10.56399522 16 48.83 -28 59 45.2    ~7AM7 18.73oVNEOCPT05
     A10eQE0  C2019 07 10.56784822 16 48.88 -28 59 45.8    ~7AM7 18.65oVNEOCPT05
     A10eQE0  C2019 07 10.57480422 16 48.91 -28 59 46.6    ~7AM7 19.05oVNEOCPT05
     A10eQE0  C2019 07 10.58754322 16 49.13 -28 59 50.0    ~7AM7 19.12oVNEOCPT05
     A10eQE0 KC2019 07 11)*u`^=Zd99S^5y;$]\rKFvAstrometry\c8=Ru!M5`SRt=E4Kr:yE23
     A10eQE0 KC2019 07 11g\IjaIACJ*#bGU8\Mi7aKK2KCL$dD`35!\Vy``Ia2acn4^nqEtB1E23
     A10eQE0 KC2019 07 11y?7$)[predacted;p@,?mfApM-1kyK:nB9hJg7aE@Bdjm*vs#C:xE23
     A10eQE0 1C2019 07 11mA,$2b$7L3;nQ?5B[by,I]]C`]^t$jRkR0\.\pI*!h@DHU`KTmN7Q62
     A10eQE0 1C2019 07 11Pqw0.5^gZ72fGnu*xhtA.icXnq%C./n_@WO$clickD/o0u=XJ!wIQ62
     A10eQE0 KC2019 07 15iqDRi3oG\ghereMYO\'iV^[\'*lG%'*lMND;mcwZj00M8Sfor]PqI47
     A10eQE0 KC2019 07 15r3x#YTJ^[':esgmq)/dG,y7qcc9gtew`sxexplanation/)mNVZBI47
     A10eQE0 KC2019 07 15'QE?7DV.aOq#+ejYk/1+)g^8JQf1.a)9,HQ+Y_lb1Jmv:A$7M-$1I47

Station data:
(E23) Arcadia  (S33.621199 E151.071190)  Australia/NSW.
(I47) Pierre Auger Observatory, Malargüe  (S35.495442 W69.449700)  Argentina.
(Q62) iTelescope Observatory, Siding Spring  (S31.273289 E149.064420)
   Australia/NSW. 0.50-m f/6.8 astrograph + CCD + focal reducer, 0.70-m f/6.6
   astrograph + CCD.
(T05) ATLAS-HKO, Haleakala  (N20.707573 W156.257010)  US/Hawaii.  Observers
   L. Denneau, A. Heinze, H. Weiland, J. Tonry, H. Flewelling, A.
   Fitzsimmons, D. Young, B. Stalder. Measurers L. Denneau, A. Heinze, J.
   Tonry. 0.5-m f/2.0 Schmidt + CCD.

Orbital elements:  A10eQE0
   Perihelion 2019 Aug 3.940185 +/- 9.38 TT = 22:33:52 (JD 2458699.440185)
Epoch 2019 Jul 15.0 TT = JDT 2458679.5   Earth MOID: 0.7249   AutoNEOCP
M 354.78061167 +/- 2.6              (J2000 ecliptic)
n   0.26175225 +/- 0.00912          Peri.  291.85095 +/- 5.9
a   2.42033658 +/- 0.0562           Node    24.26844 +/- 1.3
e   0.2903421 +/- 0.0119            Incl.    8.16551 +/- 0.033
P   3.77                   H 17.4   G  0.15   U  9.6  
q 1.71761088 +/- 0.0109    Q 3.12306227 +/- 0.0993
From 12 observations 2019 July 10-15; mean residual 0".32
Residuals in arcseconds: 
190710 T05  .48+  .31-    190711 E23  .08+  .15-    190711 Q62  .02+  .15-    
190710 T05  .38+  .09-    190711 E23  .61+  .22-    190715 I47  .21+  .32+    
190710 T05  .61-  .59+    190711 E23  .53-  .18+    190715 I47  .01+  .02-    
190710 T05  .25-  .12-    190711 Q62  .17-  .26+    190715 I47  .20-  .29-    

Ephemerides (geocentric):
Date (UTC) HH   RA              Dec         delta   r     elong  mag " sig PA
---- -- -- --  -------------   -----------  ------ ------ -----  --- ---- ---
2019 07 16 12  22 18 02.039   -29 21 32.14  .79410 1.7225 143.8 19.1 .577  52
2019 07 16 13  22 18 02.233   -29 21 41.56  .79391 1.7225 143.9 19.1 .601  53
2019 07 16 14  22 18 02.422   -29 21 50.98  .79372 1.7225 143.9 19.1 .625  53
2019 07 16 15  22 18 02.607   -29 22 00.40  .79353 1.7225 143.9 19.1 .649  53
2019 07 16 16  22 18 02.788   -29 22 09.82  .79333 1.7225 144.0 19.1 .673  53
2019 07 16 17  22 18 02.964   -29 22 19.25  .79314 1.7224 144.0 19.1 .698  53
2019 07 16 18  22 18 03.136   -29 22 28.67  .79295 1.7224 144.0 19.1 .723  53
2019 07 16 19  22 18 03.303   -29 22 38.09  .79276 1.7224 144.1 19.1 .749  53
2019 07 16 20  22 18 03.466   -29 22 47.52  .79257 1.7224 144.1 19.1 .775  54
2019 07 16 21  22 18 03.624   -29 22 56.94  .79238 1.7224 144.1 19.1 .801  54
2019 07 16 22  22 18 03.777   -29 23 06.37  .79219 1.7223 144.2 19.1 .828  54
2019 07 16 23  22 18 03.927   -29 23 15.80  .79200 1.7223 144.2 19.1 .855  54
2019 07 17 00  22 18 04.071   -29 23 25.22  .79181 1.7223 144.2 19.1 .882  54
2019 07 17 01  22 18 04.212   -29 23 34.65  .79162 1.7223 144.3 19.1 .910  54
2019 07 17 02  22 18 04.347   -29 23 44.08  .79143 1.7222 144.3 19.1 .938  54
2019 07 17 03  22 18 04.479   -29 23 53.51  .79124 1.7222 144.3 19.1 .966  54
2019 07 17 04  22 18 04.605   -29 24 02.94  .79105 1.7222 144.4 19.1 0.99  54
2019 07 17 05  22 18 04.728   -29 24 12.36  .79086 1.7222 144.4 19.1 1.02  54
2019 07 17 06  22 18 04.846   -29 24 21.79  .79067 1.7222 144.4 19.1 1.05  55
2019 07 17 07  22 18 04.959   -29 24 31.22  .79048 1.7221 144.5 19.1 1.08  55
2019 07 17 08  22 18 05.068   -29 24 40.65  .79029 1.7221 144.5 19.1 1.11  55
2019 07 17 09  22 18 05.172   -29 24 50.08  .79010 1.7221 144.5 19.1 1.14  55
2019 07 17 10  22 18 05.272   -29 24 59.51  .78992 1.7221 144.6 19.1 1.17  55
2019 07 17 11  22 18 05.367   -29 25 08.94  .78973 1.7221 144.6 19.1 1.21  55
2019 07 17 12  22 18 05.458   -29 25 18.37  .78954 1.7220 144.6 19.1 1.24  55
2019 07 17 13  22 18 05.545   -29 25 27.80  .78936 1.7220 144.7 19.1 1.27  55
2019 07 17 14  22 18 05.627   -29 25 37.23  .78917 1.7220 144.7 19.1 1.30  55
2019 07 17 15  22 18 05.704   -29 25 46.66  .78898 1.7220 144.7 19.1 1.33  55
2019 07 17 16  22 18 05.777   -29 25 56.09  .78880 1.7219 144.8 19.1 1.37  55
2019 07 17 17  22 18 05.846   -29 26 05.52  .78861 1.7219 144.8 19.1 1.40  56
2019 07 17 18  22 18 05.910   -29 26 14.95  .78842 1.7219 144.8 19.1 1.44  56
2019 07 17 19  22 18 05.969   -29 26 24.38  .78824 1.7219 144.9 19.1 1.47  56
2019 07 17 20  22 18 06.024   -29 26 33.81  .78805 1.7219 144.9 19.1 1.50  56
2019 07 17 21  22 18 06.075   -29 26 43.24  .78787 1.7218 144.9 19.1 1.54  56
2019 07 17 22  22 18 06.121   -29 26 52.66  .78768 1.7218 145.0 19.1 1.57  56
2019 07 17 23  22 18 06.162   -29 27 02.09  .78750 1.7218 145.0 19.1 1.61  56
2019 07 18 00  22 18 06.199   -29 27 11.52  .78731 1.7218 145.1 19.1 1.65  56
2019 07 18 01  22 18 06.232   -29 27 20.94  .78713 1.7218 145.1 19.1 1.68  56
2019 07 18 02  22 18 06.260   -29 27 30.37  .78695 1.7217 145.1 19.1 1.72  56
2019 07 18 03  22 18 06.284   -29 27 39.79  .78676 1.7217 145.2 19.1 1.76  56
2019 07 18 04  22 18 06.303   -29 27 49.22  .78658 1.7217 145.2 19.1 1.79  56
2019 07 18 05  22 18 06.318   -29 27 58.64  .78640 1.7217 145.2 19.1 1.83  56
2019 07 18 06  22 18 06.328   -29 28 08.07  .78621 1.7217 145.3 19.1 1.87  56
2019 07 18 07  22 18 06.333   -29 28 17.49  .78603 1.7216 145.3 19.1 1.91  57
2019 07 18 08  22 18 06.335   -29 28 26.91  .78585 1.7216 145.3 19.1 1.95  57
2019 07 18 09  22 18 06.331   -29 28 36.33  .78567 1.7216 145.4 19.1 1.99  57
2019 07 18 10  22 18 06.324   -29 28 45.75  .78548 1.7216 145.4 19.1 2.03  57
2019 07 18 11  22 18 06.311   -29 28 55.17  .78530 1.7216 145.4 19.1 2.07  57